Tracking 23581 objects as of 27-Jul-2021
HD Live streaming from Space Station
objects crossing your sky now

COSMOS 2491 DEB

Track COSMOS 2491 DEB now!
10-day predictions


NORAD ID: 45108
Int'l Code: 2013-076X
Perigee: 1,519.9 km
Apogee: 1,618.3 km
Inclination: 82.5 °
Period: 117.4 minutes
Semi major axis: 7940 km
RCS: Unknown
Launch date: December 25, 2013
Source: Commonwealth of Independent States (former USSR) (CIS)
Launch site: PLESETSK MISSILE AND SPACE COMPLEX (PKMTR)

Note: This is SATELLITE DEBRIS
aabbcc
Your satellite tracking list
Your tracking list is empty




NASA's NSSDC Master Catalog

Two Line Element Set (TLE):
1 45108U 13076X   20217.27709460 -.00002938  00000-0 -25933-1 0  9999
2 45108  82.4909  68.9853 0062004 107.2343 253.5526 12.27058637 25166
Source of the keplerian elements: AFSPC